Regional Weather Roundup
Issued by NWS

Home | Current Version | Previous Version | Graphics & Text | Print | Product List | Glossary On
Versions: 1 2 3 4 5 6 7 8 9 10 11 12 13 14 15 16 17 18 19 20 21 22 23 24 25 26 27 28 29 30 31 32 33 34 35 36 37 38 39 40 41 42 43 44 45 46 47 48 49 50
000
ASUS43 KBIS 210910
RWRND

NORTH DAKOTA REGIONAL WEATHER ROUNDUP
NATIONAL WEATHER SERVICE BISMARCK ND
300 AM CST SAT JAN 21 2017

NOTE: "FAIR" INDICATES FEW OR NO CLOUDS BELOW 12,000 FEET WITH NO
SIGNIFICANT WEATHER AND/OR OBSTRUCTIONS TO VISIBILITY.


NDZ001>003-009>011-017-211000-
NORTHWEST NORTH DAKOTA

CITY           SKY/WX    TMP DP  RH WIND       PRES   REMARKS
WILLISTON      CLOUDY    24  22  91 CALM      29.31R
MINOT          CLOUDY    29  28  96 S3        29.31S FOG
MINOT AFB      CLOUDY    27  27 100 SW5       29.31R FOG
$$

NDZ018>021-031>035-040>046-211000-
SOUTHWEST NORTH DAKOTA

CITY           SKY/WX    TMP DP  RH WIND       PRES   REMARKS
BISMARCK       CLOUDY    31  30  96 W6        29.32S FOG
DICKINSON      CLOUDY    29  25  85 NW12      29.27R WCI  19
GARRISON         N/A     23  22  96 CALM      29.30F
HETTINGER ARPT CLOUDY    30  26  85 NW13      29.30R WCI  20
$$

NDZ004>008-012>016-024-026-027-054-211000-
NORTHEAST NORTH DAKOTA

CITY           SKY/WX    TMP DP  RH WIND       PRES   REMARKS
GRAND FORKS    CLOUDY    35  32  88 SE10      29.41F
GRND FRKS AFB  CLOUDY    34  34  99 SE10      29.41S
DEVILS LAKE    MIX PCPN N/A N/A N/A SE8       29.36S VSB 3/4
$$

NDZ022-023-025-028>030-036>039-047>053-211000-
SOUTHEAST NORTH DAKOTA

CITY           SKY/WX    TMP DP  RH WIND       PRES   REMARKS
FARGO          CLOUDY    38  35  89 SE12      29.41S
JAMESTOWN      FOG       33  33 100 SE9       29.33S VSB 1/4
$$





USA.gov is the U.S. government's official web portal to all federal, state and local government web resources and services.